Location: Caltech
(34.1382°N, 118.1253°W)
Time: 14:05:43
(UTC-07:00)

Gurwin Techsat 1B - Visible Passes

Search period start: 23 April 2014 00:00
Search period end: 03 May 2014 00:00
Orbit: 812 x 815 km, 98.5° (Epoch: 22 April)

Date Brightness Start Highest point End Pass type
(mag) Time Alt. Az. Time Alt. Az. Time Alt. Az.
23 Apr 10.4 03:01:04 10° NE 03:05:17 24° E 03:05:49 23° ESE visible
23 Apr 9.3 04:40:28 10° N 04:45:15 35° WNW 04:47:02 28° WSW visible
24 Apr 11.0 02:39:50 10° ENE 02:42:28 14° E 02:43:00 14° E visible
24 Apr 8.7 04:17:32 10° N 04:22:45 59° WNW 04:24:14 43° SW visible
25 Apr 8.5 03:54:51 10° NNE 04:00:11 84° ESE 04:01:25 54° S visible
25 Apr 10.6 05:38:28 10° NW 05:39:22 10° WNW 05:40:17 10° WNW visible
26 Apr 9.3 03:32:23 10° NNE 03:37:32 50° E 03:38:37 43° SE visible
26 Apr 10.2 05:13:38 10° NNW 05:17:04 18° WNW 05:19:50 12° W visible
27 Apr 10.1 03:10:14 10° NE 03:14:50 29° E 03:15:48 28° ESE visible
27 Apr 9.6 04:50:11 10° NNW 04:54:40 29° WNW 04:57:02 21° WSW visible
28 Apr 10.7 02:48:34 10° NE 02:52:03 18° E 02:52:59 17° ESE visible
28 Apr 8.9 04:27:08 10° N 04:32:12 47° WNW 04:34:13 32° WSW visible
29 Apr 8.5 04:04:20 10° N 04:09:39 79° WNW 04:11:24 44° SSW visible
30 Apr 8.9 03:41:46 10° NNE 03:47:03 63° E 03:48:35 44° SSE visible
30 Apr 10.4 05:23:43 10° NNW 05:26:25 14° WNW 05:29:08 10° W visible
01 May 9.8 03:19:28 10° NNE 03:24:22 37° E 03:25:45 32° SE visible
01 May 9.9 04:59:58 10° NNW 05:04:04 23° WNW 05:06:59 15° WSW visible
02 May 10.5 02:57:32 10° NE 03:01:37 22° E 03:02:56 20° ESE visible
02 May 9.3 04:36:46 10° N 04:41:38 38° WNW 04:44:09 24° WSW visible
